Regional Weather Roundup
Issued by NWS

Home | Current Version | Previous Version | Text Only | Print | Product List | Glossary Off
Versions: 1 2 3 4 5 6 7 8 9 10 11 12 13 14 15 16 17 18 19 20 21 22 23 24 25 26 27 28 29 30 31 32 33 34 35 36 37 38 39 40 41 42 43 44 45 46 47 48 49 50

000
ASUS45 KTFX 112310
RWRMT
MONTANA REGIONAL WEATHER ROUNDUP
NATIONAL WEATHER SERVICE GREAT FALLS MT
400 PM MST THU FEB 11 2016

NOTE: "FAIR" INDICATES FEW OR NO CLOUDS BELOW 12000 FEET WITH NO
SIGNIFICANT WEATHER AND/OR OBSTRUCTIONS TO VISIBILITY.

MTZ001>007-043-120000-
WEST OF THE DIVIDE

CITY           SKY/WX    TMP DP  RH WIND       PRES   REMARKS
KALISPELL      PTSUNNY   44  33  65 CALM      30.25F
MISSOULA       PTSUNNY   50  30  46 CALM      30.25S
BUTTE          CLOUDY    47  25  42 CALM      30.24F
MULLAN PASS    CLOUDY    38  28  67 S3        30.25S
ANACONDA         N/A     45  27  49 NW5       30.25S
DEER LODGE       N/A     46  34  61 CALM      30.26R
HAMILTON         N/A     48  34  57 N5        30.25R
PLAINS           N/A     52  37  56 CALM      30.24F
THOMPSON FALLS   N/A     50  37  60 SW2       30.28
$$

MTZ008-052>055-120000-
SOUTHWEST MONTANA

CITY           SKY/WX    TMP DP  RH WIND       PRES   REMARKS
BOZEMAN        CLOUDY    38  30  73 NE6       30.24S
DILLON         CLOUDY    43  30  60 SW17      30.24S
ENNIS          CLOUDY    45  28  53 S9        30.31S
TWIN BRIDGES     N/A     41  28  60 E2        30.21S
$$

MTZ009-010-012-014-046-048-049-054-120000-
EAST SLOPES AND CENTRAL MONTANA

CITY           SKY/WX    TMP DP  RH WIND       PRES   REMARKS
CUT BANK       PTSUNNY   46  31  55 N15       30.21R
GREAT FALLS    CLOUDY    50  24  36 N14       30.20R
HELENA         CLOUDY    53  26  35 CALM      30.21S
CHOTEAU          N/A     50  27  40 NE14      30.22R
$$

MTZ011-013-016-021-045-047-050-051-120000-
NORTH CENTRAL MONTANA

CITY           SKY/WX    TMP DP  RH WIND       PRES   REMARKS
HAVRE          CLOUDY    38  32  79 W10       30.23R WCI  31
LEWISTOWN      CLOUDY    46  27  47 N7        30.19R
N BAR RANCH      N/A     48  21  34 NW16G24   30.19R
CHINOOK          N/A     39  32  75 NW7       30.22R
$$

MTZ017>020-022>027-061-062-120000-
NORTHEAST MONTANA

CITY           SKY/WX    TMP DP  RH WIND       PRES   REMARKS
GLASGOW        CLOUDY    32  24  72 CALM      30.21R
JORDAN           N/A     35  30  82 N7        30.19R WCI  29
SIDNEY         CLOUDY    27  19  74 NW8       30.23R WCI  18
WOLF POINT     CLOUDY    30  21  69 CALM      30.24S
PLENTYWOOD       N/A     21  16  79 NW8       30.22R WCI  12
POPLAR           N/A     27  18  69 NW3       30.26R
SCOBEY           N/A     24  13  63 N3        30.18R
$$

MTZ028>42-056>058-120000-
SOUTHCENTRAL AND SOUTHEAST MONTANA

CITY           SKY/WX    TMP DP  RH WIND       PRES   REMARKS
BAKER          CLOUDY    31  27  85 N13       30.15R WCI  21
BILLINGS       PTSUNNY   56  19  23 N14       30.17R
LIVINGSTON     MOSUNNY   55  18  23 W14G21    30.20S
MILES CITY     MOSUNNY   40  31  70 N14       30.17R
FORSYTH          N/A     46  34  61 N10       30.16R
LAUREL           N/A     56  18  22 NW12      30.15R
ROUNDUP          N/A     54  20  26 NW16      30.06R
$$

REGIONAL REPORTS...DAKOTAS

CITY           SKY/WX    TMP DP  RH WIND       PRES   REMARKS
WILLISTON      PTCLDY    24  16  71 N8        30.23R WCI  15
MINOT          CLOUDY    21  11  65 NW9       30.21R WCI  11
DICKINSON      CLOUDY    23  18  81 N5        30.13R
BEACH          CLOUDY    28  27  93 N12       30.19R WCI  18
CROSBY         CLOUDY    19  18  93 NW6       30.25R WCI  11
TIOGA          MOCLDY    19  18  93 N8        30.24R WCI   9
WATFORD CITY   MOCLDY    25  18  74 NW6       30.20R WCI  18
BISMARCK       FLURRIES  26  18  71 N8        30.19R WCI  18
GRAND FORKS    FLURRIES  16   8  71 NW8       30.25R WCI   5
FARGO          CLOUDY    14   3  61 N7        30.24R WCI   4
BUFFALO SD       N/A     36  29  75 N20       30.05R WCI  25
RAPID CITY     MOSUNNY   52  30  43 N24G37    30.05
$$

REGIONAL REPORTS...WYOMING/IDAHO/WASHINGTON

CITY           SKY/WX    TMP DP  RH WIND       PRES   REMARKS
GILLETTE       SUNNY     50  25  37 NW20G28   30.14R
SHERIDAN       SUNNY     55  23  28 N18G30    30.15R
BUFFALO WY     CLOUDY    50  25  37 N15       30.17R
CODY           SUNNY     55  16  21 N15       30.19R
YELLOWSTONE LA   N/A     41  19  41 MISG      30.33R
IDAHO FALLS    CLOUDY    30  24  78 N6        30.38S WCI  24
SALMON         PTSUNNY   30  21  69 CALM      30.35F
BOISE          PTSUNNY   47  34  60 E5        30.31F
SPOKANE        CLOUDY    43  37  79 NE8       30.24F
$$

REGIONAL REPORTS...ALBERTA

CITY           SKY/WX    TMP DP  RH WIND       PRES   REMARKS
EDMONTON       CLOUDY    19  14  79 NE6       30.28R WCI  11
CALGARY        MOSUNNY   43  32  65 NE6       30.19S
LETHBRIDGE     PTSUNNY   46  34  61 NW6       30.22R
MEDICINE HAT   PTSUNNY   37  32  81 W7        30.22R
WATERTON GATE    N/A     46  25  42 SW12        N/A
CARDSTON         N/A     50  30  46 E3          N/A
MILK RIVER       N/A     43  32  65 N10         N/A
$$

REGIONAL REPORTS...SASKATCHEWAN

CITY           SKY/WX    TMP DP  RH WIND       PRES   REMARKS
SWIFT CURRENT  CLOUDY    21  18  86 NE6       30.20S WCI  14
REGINA         CLOUDY    16   9  73 NW12      30.27R WCI   3
SASKATOON      CLOUDY     9   3  78 NE5       30.36R
CYPRESS HILLS    N/A     27  25  93 NW6         N/A  WCI  20
VAL MARIE        N/A     28  25  86 N9          N/A  WCI  20
ROCKGLEN         N/A     23  19  86 N6          N/A  WCI  16
ASSINIBOIA       N/A     18  14  86 NE8         N/A  WCI   7
$$



USA.gov is the U.S. government's official web portal to all federal, state and local government web resources and services.